Location: Peterborough
(44.3091°N, 78.3197°W)
Time: 22:58:45
(UTC-04:00)

Envisat - Pass Details

Date: 19 April 2026
Orbit: 761 x 762 km, 98.4° (Epoch: 15 May)

Event Time Altitude Azimuth Distance (km) Brightness Sun altitude
Rises 04:47:02 0° 5° (N) 3,234 6.8 -16.3°
Reaches altitude 10° 04:49:32 10° 356° (N) 2,304 5.9 -15.9°
Maximum altitude 04:54:01 33° 293° (WNW) 1,266 3.8 -15.2°
Enters shadow 04:56:18 23° 249° (WSW) 1,599 4.1 -14.9°
